Time,TemperatureF,DewpointF,PressureIn,WindDirection,WindDirectionDegrees,WindSpeedMPH,WindSpeedGustMPH,Humidity,HourlyPrecipIn,Conditions,Clouds,dailyrainin,SoftwareType,DateUTC
2013-04-25 00:03:00,58.0,47.0,29.80,SW,222,4.0,12.0,68,0.00,,,0.01,,2013-04-25 04:03:00,
2013-04-25 00:13:00,58.0,47.0,29.80,SW,222,4.0,12.0,68,0.00,,,0.01,,2013-04-25 04:13:00,
2013-04-25 00:23:00,58.0,48.0,29.81,SSW,213,4.0,10.0,69,0.00,,,0.00,,2013-04-25 04:23:00,
2013-04-25 00:33:00,57.0,47.0,29.80,SW,214,3.0,13.0,70,0.00,,,0.00,,2013-04-25 04:33:00,
2013-04-25 00:43:00,57.0,47.0,29.80,SW,214,3.0,13.0,70,0.00,,,0.00,,2013-04-25 04:43:00,
2013-04-25 00:52:00,57.0,47.0,29.80,SW,214,3.0,13.0,70,0.00,,,0.00,,2013-04-25 04:52:00,
2013-04-25 01:03:00,56.0,48.0,29.80,SW,215,3.0,10.0,74,0.00,,,0.00,,2013-04-25 05:03:00,
2013-04-25 01:12:00,56.0,48.0,29.80,SW,215,3.0,10.0,74,0.00,,,0.00,,2013-04-25 05:12:00,
2013-04-25 01:22:00,56.0,48.0,29.80,SW,215,3.0,10.0,74,0.00,,,0.00,,2013-04-25 05:22:00,
2013-04-25 01:32:00,55.0,48.0,29.80,SW,216,3.0,12.0,76,0.00,,,0.00,,2013-04-25 05:32:00,
2013-04-25 01:42:00,55.0,48.0,29.80,SW,216,3.0,12.0,76,0.00,,,0.00,,2013-04-25 05:42:00,
2013-04-25 01:52:00,55.0,48.0,29.80,SW,216,3.0,12.0,76,0.00,,,0.00,,2013-04-25 05:52:00,
2013-04-25 02:02:00,55.0,48.0,29.81,SW,217,4.0,12.0,78,0.00,,,0.00,,2013-04-25 06:02:00,
2013-04-25 02:12:00,55.0,48.0,29.81,SW,217,4.0,12.0,78,0.00,,,0.00,,2013-04-25 06:12:00,
2013-04-25 02:22:00,55.0,49.0,29.80,SW,217,2.0,7.0,79,0.00,,,0.00,,2013-04-25 06:22:00,
2013-04-25 02:32:00,55.0,49.0,29.80,SSW,195,2.0,10.0,80,0.00,,,0.00,,2013-04-25 06:32:00,
2013-04-25 02:42:00,55.0,49.0,29.80,SSW,195,2.0,10.0,80,0.00,,,0.00,,2013-04-25 06:42:00,
2013-04-25 02:52:00,55.0,49.0,29.80,SSW,195,2.0,10.0,80,0.00,,,0.00,,2013-04-25 06:52:00,
2013-04-25 03:02:00,55.0,49.0,29.81,SW,227,2.0,10.0,81,0.00,,,0.00,,2013-04-25 07:02:00,
2013-04-25 03:12:00,55.0,49.0,29.81,SW,227,2.0,10.0,81,0.00,,,0.00,,2013-04-25 07:12:00,
2013-04-25 03:22:00,55.0,49.0,29.82,WSW,238,3.0,9.0,81,0.00,,,0.00,,2013-04-25 07:22:00,
2013-04-25 03:32:00,55.0,49.0,29.82,WSW,238,3.0,9.0,81,0.00,,,0.00,,2013-04-25 07:32:00,
2013-04-25 03:42:00,55.0,49.0,29.82,WSW,238,3.0,9.0,81,0.00,,,0.00,,2013-04-25 07:42:00,
2013-04-25 03:52:00,55.0,49.0,29.82,WSW,238,3.0,9.0,81,0.00,,,0.00,,2013-04-25 07:52:00,
2013-04-25 04:02:00,55.0,50.0,29.85,SW,229,2.0,6.0,84,0.01,,,0.01,,2013-04-25 08:02:00,
2013-04-25 04:11:00,55.0,50.0,29.85,SW,229,2.0,6.0,84,0.01,,,0.01,,2013-04-25 08:11:00,
2013-04-25 04:22:00,55.0,50.0,29.85,SW,229,2.0,6.0,84,0.01,,,0.01,,2013-04-25 08:22:00,
2013-04-25 04:32:00,54.0,51.0,29.85,SW,216,0.0,3.0,88,0.04,,,0.04,,2013-04-25 08:32:00,
2013-04-25 04:42:00,54.0,51.0,29.85,SW,216,0.0,3.0,88,0.04,,,0.04,,2013-04-25 08:42:00,
2013-04-25 04:52:00,54.0,51.0,29.86,SW,216,0.0,2.0,89,0.06,,,0.06,,2013-04-25 08:52:00,
2013-04-25 05:01:00,54.0,51.0,29.87,West,263,1.0,6.0,90,0.06,,,0.06,,2013-04-25 09:01:00,
2013-04-25 05:11:00,54.0,51.0,29.87,West,263,1.0,6.0,90,0.06,,,0.06,,2013-04-25 09:11:00,
2013-04-25 05:21:00,53.0,49.0,29.89,West,274,7.0,14.0,87,0.04,,,0.06,,2013-04-25 09:21:00,
2013-04-25 05:33:00,50.0,44.0,29.91,West,275,6.0,16.0,80,0.02,,,0.06,,2013-04-25 09:33:00,
2013-04-25 05:42:00,50.0,44.0,29.91,West,275,6.0,16.0,80,0.02,,,0.06,,2013-04-25 09:42:00,
2013-04-25 05:52:00,50.0,44.0,29.93,West,280,5.0,16.0,80,0.00,,,0.06,,2013-04-25 09:52:00,
2013-04-25 06:03:00,50.0,44.0,29.93,West,280,5.0,16.0,80,0.00,,,0.06,,2013-04-25 10:03:00,
2013-04-25 06:12:00,50.0,44.0,29.93,West,280,5.0,16.0,80,0.00,,,0.06,,2013-04-25 10:12:00,
2013-04-25 06:22:00,49.0,41.0,29.96,West,280,6.0,15.0,75,0.00,,,0.06,,2013-04-25 10:22:00,
2013-04-25 06:33:00,48.0,39.0,29.97,West,280,5.0,11.0,71,0.00,,,0.06,,2013-04-25 10:33:00,
2013-04-25 06:42:00,48.0,39.0,29.97,West,280,5.0,11.0,71,0.00,,,0.06,,2013-04-25 10:42:00,
2013-04-25 06:52:00,48.0,39.0,29.97,West,280,5.0,11.0,71,0.00,,,0.06,,2013-04-25 10:52:00,
2013-04-25 07:02:00,48.0,38.0,29.98,West,278,5.0,19.0,68,0.00,,,0.06,,2013-04-25 11:02:00,
2013-04-25 07:12:00,48.0,38.0,29.98,West,278,5.0,19.0,68,0.00,,,0.06,,2013-04-25 11:12:00,
2013-04-25 07:22:00,48.0,38.0,29.98,West,278,5.0,19.0,68,0.00,,,0.06,,2013-04-25 11:22:00,
2013-04-25 07:32:00,48.0,37.0,30.01,West,273,7.0,12.0,65,0.00,,,0.06,,2013-04-25 11:32:00,
2013-04-25 07:42:00,48.0,37.0,30.01,West,273,7.0,12.0,65,0.00,,,0.06,,2013-04-25 11:42:00,
2013-04-25 07:52:00,48.0,36.0,30.01,West,278,7.0,18.0,63,0.00,,,0.06,,2013-04-25 11:52:00,
2013-04-25 08:01:00,48.0,36.0,30.02,WNW,283,7.0,15.0,63,0.00,,,0.06,,2013-04-25 12:01:00,
2013-04-25 08:12:00,48.0,36.0,30.02,WNW,283,7.0,15.0,63,0.00,,,0.06,,2013-04-25 12:12:00,
2013-04-25 08:21:00,48.0,36.0,30.02,WNW,283,7.0,15.0,63,0.00,,,0.06,,2013-04-25 12:21:00,
2013-04-25 08:32:00,49.0,36.0,30.02,WNW,294,5.0,11.0,61,0.00,,,0.06,,2013-04-25 12:32:00,
2013-04-25 08:42:00,49.0,36.0,30.02,WNW,294,5.0,11.0,61,0.00,,,0.06,,2013-04-25 12:42:00,
2013-04-25 08:52:00,49.0,37.0,30.04,WNW,286,3.0,10.0,62,0.00,,,0.06,,2013-04-25 12:52:00,
2013-04-25 09:02:00,50.0,36.0,30.05,WNW,285,6.0,16.0,58,0.00,,,0.06,,2013-04-25 13:02:00,
2013-04-25 09:11:00,50.0,36.0,30.05,WNW,285,6.0,16.0,58,0.00,,,0.06,,2013-04-25 13:11:00,
2013-04-25 09:21:00,50.0,36.0,30.05,WNW,285,6.0,16.0,58,0.00,,,0.06,,2013-04-25 13:21:00,
2013-04-25 09:32:00,52.0,37.0,30.04,WNW,289,6.0,14.0,56,0.00,,,0.06,,2013-04-25 13:32:00,
2013-04-25 09:42:00,52.0,37.0,30.04,WNW,289,6.0,14.0,56,0.00,,,0.06,,2013-04-25 13:42:00,
2013-04-25 09:53:00,52.0,34.0,30.05,WNW,283,7.0,16.0,51,0.00,,,0.06,,2013-04-25 13:53:00,
2013-04-25 10:02:00,52.0,34.0,30.05,WNW,283,7.0,16.0,51,0.00,,,0.06,,2013-04-25 14:02:00,
2013-04-25 10:11:00,52.0,34.0,30.05,WNW,283,7.0,16.0,51,0.00,,,0.06,,2013-04-25 14:11:00,
2013-04-25 10:21:00,52.0,34.0,30.05,WNW,283,7.0,16.0,51,0.00,,,0.06,,2013-04-25 14:21:00,
2013-04-25 10:52:00,55.0,35.0,30.06,WNW,289,8.0,19.0,46,0.00,,,0.06,,2013-04-25 14:52:00,
2013-04-25 11:02:00,56.0,34.0,30.07,West,281,8.0,16.0,43,0.00,,,0.06,,2013-04-25 15:02:00,
2013-04-25 11:11:00,56.0,34.0,30.07,West,281,8.0,16.0,43,0.00,,,0.06,,2013-04-25 15:11:00,
2013-04-25 11:21:00,58.0,35.0,30.06,West,279,6.0,16.0,42,0.00,,,0.06,,2013-04-25 15:21:00,
2013-04-25 11:33:00,57.0,34.0,30.07,West,281,8.0,17.0,41,0.00,,,0.06,,2013-04-25 15:33:00,
2013-04-25 11:42:00,57.0,34.0,30.07,West,281,8.0,17.0,41,0.00,,,0.06,,2013-04-25 15:42:00,
2013-04-25 11:53:00,57.0,34.0,30.07,West,281,8.0,17.0,41,0.00,,,0.06,,2013-04-25 15:53:00,
2013-04-25 12:02:00,58.0,34.0,30.09,WNW,291,7.0,15.0,40,0.00,,,0.06,,2013-04-25 16:02:00,
2013-04-25 12:13:00,58.0,34.0,30.09,WNW,291,7.0,15.0,40,0.00,,,0.06,,2013-04-25 16:13:00,
2013-04-25 12:24:00,59.0,35.0,30.09,WNW,297,5.0,15.0,40,0.00,,,0.06,,2013-04-25 16:24:00,
2013-04-25 12:33:00,59.0,35.0,30.09,WNW,297,5.0,15.0,40,0.00,,,0.06,,2013-04-25 16:33:00,
2013-04-25 12:43:00,59.0,35.0,30.09,WNW,297,5.0,15.0,40,0.00,,,0.06,,2013-04-25 16:43:00,
2013-04-25 12:52:00,60.0,33.0,30.09,WNW,295,6.0,14.0,36,0.00,,,0.06,,2013-04-25 16:52:00,
2013-04-25 13:02:00,60.0,36.0,30.09,WNW,298,6.0,13.0,40,0.00,,,0.06,,2013-04-25 17:02:00,
2013-04-25 13:12:00,60.0,36.0,30.09,WNW,298,6.0,13.0,40,0.00,,,0.06,,2013-04-25 17:12:00,
2013-04-25 13:22:00,60.0,36.0,30.09,WNW,298,6.0,13.0,40,0.00,,,0.06,,2013-04-25 17:22:00,
2013-04-25 13:32:00,63.0,36.0,30.09,WNW,297,3.0,8.0,37,0.00,,,0.06,,2013-04-25 17:32:00,
2013-04-25 13:42:00,63.0,36.0,30.09,WNW,297,3.0,8.0,37,0.00,,,0.06,,2013-04-25 17:42:00,
2013-04-25 13:53:00,61.0,31.0,30.10,WNW,282,6.0,14.0,32,0.00,,,0.06,,2013-04-25 17:53:00,
2013-04-25 14:02:00,62.0,33.0,30.09,WNW,295,6.0,13.0,33,0.00,,,0.06,,2013-04-25 18:02:00,
2013-04-25 14:11:00,62.0,33.0,30.09,WNW,295,6.0,13.0,33,0.00,,,0.06,,2013-04-25 18:11:00,
2013-04-25 14:22:00,62.0,33.0,30.09,WNW,295,6.0,13.0,33,0.00,,,0.06,,2013-04-25 18:22:00,
2013-04-25 14:32:00,62.0,31.0,30.10,West,277,5.0,15.0,31,0.00,,,0.06,,2013-04-25 18:32:00,
2013-04-25 14:43:00,62.0,31.0,30.10,West,277,5.0,15.0,31,0.00,,,0.06,,2013-04-25 18:43:00,
2013-04-25 14:53:00,63.0,29.0,30.10,West,280,5.0,13.0,28,0.00,,,0.06,,2013-04-25 18:53:00,
2013-04-25 15:02:00,63.0,29.0,30.10,West,280,5.0,13.0,28,0.00,,,0.06,,2013-04-25 19:02:00,
2013-04-25 15:12:00,63.0,29.0,30.10,West,280,5.0,13.0,28,0.00,,,0.06,,2013-04-25 19:12:00,
2013-04-25 15:21:00,63.0,29.0,30.10,West,280,5.0,13.0,28,0.00,,,0.06,,2013-04-25 19:21:00,
2013-04-25 15:32:00,63.0,33.0,30.09,WNW,292,5.0,14.0,33,0.00,,,0.06,,2013-04-25 19:32:00,
2013-04-25 15:42:00,63.0,33.0,30.09,WNW,292,5.0,14.0,33,0.00,,,0.06,,2013-04-25 19:42:00,
2013-04-25 15:52:00,64.0,31.0,30.09,East,82,3.0,8.0,29,0.00,,,0.06,,2013-04-25 19:52:00,
2013-04-25 16:02:00,64.0,31.0,30.09,WNW,287,4.0,10.0,29,0.00,,,0.06,,2013-04-25 20:02:00,
2013-04-25 16:11:00,64.0,31.0,30.09,WNW,287,4.0,10.0,29,0.00,,,0.06,,2013-04-25 20:11:00,
2013-04-25 16:22:00,63.0,29.0,30.09,NW,304,4.0,9.0,27,0.00,,,0.06,,2013-04-25 20:22:00,
2013-04-25 16:32:00,63.0,30.0,30.10,WNW,288,3.0,13.0,29,0.00,,,0.06,,2013-04-25 20:32:00,
2013-04-25 16:42:00,63.0,30.0,30.10,WNW,288,3.0,13.0,29,0.00,,,0.06,,2013-04-25 20:42:00,
2013-04-25 16:52:00,63.0,30.0,30.10,WNW,288,3.0,13.0,29,0.00,,,0.06,,2013-04-25 20:52:00,
2013-04-25 17:01:00,63.0,29.0,30.10,NNW,342,3.0,8.0,28,0.00,,,0.06,,2013-04-25 21:01:00,
2013-04-25 17:11:00,63.0,29.0,30.10,NNW,342,3.0,8.0,28,0.00,,,0.06,,2013-04-25 21:11:00,
2013-04-25 17:22:00,63.0,29.0,30.11,WNW,296,4.0,11.0,28,0.00,,,0.06,,2013-04-25 21:22:00,
2013-04-25 17:33:00,63.0,28.0,30.11,West,275,4.0,9.0,26,0.00,,,0.06,,2013-04-25 21:33:00,
2013-04-25 17:42:00,63.0,28.0,30.11,West,275,4.0,9.0,26,0.00,,,0.06,,2013-04-25 21:42:00,
2013-04-25 17:52:00,63.0,28.0,30.11,West,275,4.0,9.0,26,0.00,,,0.06,,2013-04-25 21:52:00,
2013-04-25 18:03:00,63.0,28.0,30.12,WNW,292,4.0,10.0,26,0.00,,,0.06,,2013-04-25 22:03:00,
2013-04-25 18:12:00,63.0,28.0,30.12,WNW,292,4.0,10.0,26,0.00,,,0.06,,2013-04-25 22:12:00,
2013-04-25 18:22:00,63.0,28.0,30.12,WNW,292,4.0,10.0,26,0.00,,,0.06,,2013-04-25 22:22:00,
2013-04-25 18:33:00,63.0,28.0,30.12,WNW,298,1.0,7.0,26,0.00,,,0.06,,2013-04-25 22:33:00,
2013-04-25 18:42:00,63.0,28.0,30.12,WNW,298,1.0,7.0,26,0.00,,,0.06,,2013-04-25 22:42:00,
2013-04-25 18:53:00,62.0,29.0,30.13,NW,308,2.0,6.0,28,0.00,,,0.06,,2013-04-25 22:53:00,
2013-04-25 19:02:00,62.0,29.0,30.13,NW,308,2.0,6.0,28,0.00,,,0.06,,2013-04-25 23:02:00,
2013-04-25 19:12:00,62.0,29.0,30.13,NW,308,2.0,6.0,28,0.00,,,0.06,,2013-04-25 23:12:00,
2013-04-25 19:22:00,62.0,29.0,30.13,NW,308,2.0,6.0,28,0.00,,,0.06,,2013-04-25 23:22:00,
2013-04-25 19:32:00,58.0,30.0,30.16,WNW,302,0.0,3.0,34,0.00,,,0.06,,2013-04-25 23:32:00,
2013-04-25 19:42:00,58.0,30.0,30.16,WNW,302,0.0,3.0,34,0.00,,,0.06,,2013-04-25 23:42:00,
2013-04-25 19:52:00,58.0,32.0,30.16,NW,310,0.0,3.0,37,0.00,,,0.06,,2013-04-25 23:52:00,
2013-04-25 20:01:00,56.0,34.0,30.17,WSW,250,0.0,2.0,44,0.00,,,0.06,,2013-04-26 00:01:00,
2013-04-25 20:11:00,56.0,34.0,30.17,WSW,250,0.0,2.0,44,0.00,,,0.06,,2013-04-26 00:11:00,
2013-04-25 20:21:00,53.0,39.0,30.17,WSW,240,0.0,1.0,60,0.00,,,0.06,,2013-04-26 00:21:00,
2013-04-25 20:32:00,50.0,37.0,30.18,WSW,239,0.0,1.0,61,0.00,,,0.06,,2013-04-26 00:32:00,
2013-04-25 20:42:00,50.0,37.0,30.18,WSW,239,0.0,1.0,61,0.00,,,0.06,,2013-04-26 00:42:00,
2013-04-25 20:51:00,49.0,36.0,30.19,North,0,0.0,0.0,60,0.00,,,0.06,,2013-04-26 00:51:00,
2013-04-25 21:01:00,49.0,36.0,30.19,North,0,0.0,0.0,60,0.00,,,0.06,,2013-04-26 01:01:00,
2013-04-25 21:11:00,49.0,36.0,30.19,North,0,0.0,0.0,60,0.00,,,0.06,,2013-04-26 01:11:00,
2013-04-25 21:21:00,47.0,35.0,30.21,North,0,0.0,0.0,62,0.00,,,0.06,,2013-04-26 01:21:00,
2013-04-25 21:32:00,45.0,35.0,30.22,North,0,0.0,0.0,69,0.00,,,0.06,,2013-04-26 01:32:00,
2013-04-25 21:42:00,45.0,35.0,30.22,North,0,0.0,0.0,69,0.00,,,0.06,,2013-04-26 01:42:00,
2013-04-25 21:52:00,45.0,35.0,30.22,North,0,0.0,0.0,69,0.00,,,0.06,,2013-04-26 01:52:00,
2013-04-25 22:02:00,43.0,34.0,30.22,North,0,0.0,0.0,71,0.00,,,0.06,,2013-04-26 02:02:00,
2013-04-25 22:12:00,43.0,34.0,30.22,North,0,0.0,0.0,71,0.00,,,0.06,,2013-04-26 02:12:00,
2013-04-25 22:21:00,43.0,35.0,30.23,North,0,0.0,0.0,72,0.00,,,0.06,,2013-04-26 02:21:00,
2013-04-25 22:32:00,42.0,33.0,30.23,North,0,0.0,0.0,70,0.00,,,0.06,,2013-04-26 02:32:00,
2013-04-25 22:42:00,42.0,33.0,30.23,North,0,0.0,0.0,70,0.00,,,0.06,,2013-04-26 02:42:00,
2013-04-25 22:51:00,42.0,33.0,30.23,North,0,0.0,0.0,70,0.00,,,0.06,,2013-04-26 02:51:00,
2013-04-25 23:01:00,41.0,35.0,30.24,North,0,0.0,0.0,78,0.00,,,0.06,,2013-04-26 03:01:00,
2013-04-25 23:11:00,41.0,35.0,30.24,North,0,0.0,0.0,78,0.00,,,0.06,,2013-04-26 03:11:00,
2013-04-25 23:22:00,41.0,35.0,30.24,North,0,0.0,0.0,78,0.00,,,0.06,,2013-04-26 03:22:00,
2013-04-25 23:33:00,39.0,33.0,30.26,North,0,0.0,0.0,79,0.00,,,0.06,,2013-04-26 03:33:00,
2013-04-25 23:43:00,39.0,33.0,30.26,North,0,0.0,0.0,79,0.00,,,0.06,,2013-04-26 03:43:00,
2013-04-25 23:53:00,38.0,32.0,30.26,North,0,0.0,0.0,80,0.00,,,0.06,,2013-04-26 03:53:00,